Content
SEND FEEDBACK

Daily
Averages
Monthly
Summary
Brazil

FLORIANOPOLIS, SANTA CATARINA


Home > South America > Brazil > Santa Catarina
Elevation: 16 feet     Latitude: 27 40S     Longitude: 048 33W

WEATHER
 
SELECT A DAY
Number of Records: 182,528;   Date Range: 6/30/96 - 8/31/14
 
SHARE

PRINT THIS DATA

[ ← Previous Day ]
WEATHER ALMANAC - FEBRUARY 7, 2013
[ Next Day → ]
[ °C ]   °F
Weather ElementAverageHighLow
Temperature72.7 °F77 °F (1:00 pm)66.2 °F (6:00 am)
Dewpoint65.4 °F66.2 °F (4:00 am)64.4 °F (1:00 am)
Humidity77.5 %94 % (6:00 am)61 % (4:00 pm)
Barometer30.04 in30.09 in (2:00 am)29.98 in (6:00 pm)
Wind Speed4.6 mph11.5 mph (12:00 pm)
Weather ElementAverage
Visibility7.1 mi
Wind DirectionESE (129.2 °)

Weather ElementTotal
Precipitation---
Cooling Degree Days6.6 (Base 65)
Growing Degree Days21.6 (Base 50)
Averaged from 27 records on February 7, 2013
WEATHER CONDITIONS BREAKOUT
WIND DIRECTION BREAKOUT
WEATHER BY HOUR - FEBRUARY 7, 2013
[ °C ]   °F
Local TimeTemperatureDewpointHumidityBarometerVisibilityWind DirectionWind SpeedGust SpeedPrecipitationEventsConditions
1:00 AM69.8 °F64.4 °F83 %30.06 in6.2 miESE (110°)2.3 mphMostly Cloudy
2:00 AM71.6 °F64.4 °F78 %30.09 in6.2 miCalmMostly Cloudy
3:00 AM71.6 °F64.4 °F78 %30.09 in6.2 miNE (50°)2.3 mphMostly Cloudy
4:00 AM69.0 °F66.0 °F87 %30.04 in12.0 miSW (220°)2.3 mphClear
4:00 AM69.8 °F66.2 °F88 %30.04 in6.2 miSW (220°)2.3 mphMostly Cloudy
5:00 AM69.8 °F66.2 °F88 %30.01 in6.2 miSSW (200°)2.3 mphMostly Cloudy
6:00 AM66.2 °F64.4 °F94 %30.01 in6.2 miSE (140°)2.3 mphPartly Cloudy
7:00 AM66.2 °F64.4 °F94 %30.04 in6.2 miNE (50°)2.3 mphScattered Clouds
8:00 AM68.0 °F66.2 °F94 %30.04 in6.2 miCalmPartly Cloudy
9:00 AM73.4 °F66.2 °F78 %30.06 in6.2 miSSW (200°)3.5 mphPartly Cloudy
10:00 AM74.0 °F65.0 °F67 %30.08 in12.0 miSE (140°)5.8 mphScattered Clouds
10:00 AM73.4 °F66.2 °F78 %30.06 in6.2 miSE (140°)5.8 mphPartly Cloudy
11:00 AM75.2 °F64.4 °F69 %30.06 in6.2 miSSE (160°)9.2 mphPartly Cloudy
12:00 PM75.2 °F64.4 °F69 %30.06 in6.2 miSE (140°)11.5 mphScattered Clouds
1:00 PM77.0 °F64.4 °F65 %30.06 in6.2 miSE (140°)10.4 mphScattered Clouds
2:00 PM77.0 °F64.4 °F65 %30.04 in6.2 miSSE (150°)9.2 mphScattered Clouds
3:00 PM77.0 °F66.2 °F69 %30.04 in6.2 miSouth (170°)8.1 mphMostly Cloudy
4:00 PM76.0 °F65.0 °F61 %30.04 in12.0 miSE (130°)6.9 mphPartly Cloudy
4:00 PM77.0 °F64.4 °F65 %30.04 in6.2 miSE (130°)6.9 mphMostly Cloudy
5:00 PM77.0 °F66.2 °F69 %30.01 in6.2 miSSE (150°)10.4 mphMostly Cloudy
6:00 PM75.2 °F66.2 °F73 %29.98 in6.2 miSouth (170°)6.9 mphMostly Cloudy
7:00 PM73.4 °F66.2 °F78 %30.01 in6.2 miSSE (160°)5.8 mphMostly Cloudy
8:00 PM73.4 °F66.2 °F78 %30.01 in6.2 miSouth (190°)5.8 mphMostly Cloudy
9:00 PM71.6 °F66.2 °F83 %30.01 in6.2 miSSW (200°)2.3 mphMostly Cloudy
10:00 PM72.0 °F66.0 °F76 %30.03 in12.0 miCalmMostly Cloudy
10:00 PM71.6 °F66.2 °F83 %30.01 in6.2 miCalmMostly Cloudy
11:00 PM71.6 °F66.2 °F83 %30.04 in6.2 miCalmMostly Cloudy
Hourly data recorded from SBFL, located miles away from Florianopolis, Santa Catarina







STORIES FROM OUR PARTNERS